WNISAT-1

operational
NORAD ID: 39423 Int'l Des: 2013-066 Owner: WNI Country: J
LEORETROGRADE

About WNISAT-1

Description loading...

Live Position

Loading 3D Globe...

Upcoming Passes

Altitude History

Altitude vs Time

uPlot chart will show altitude changes over time

Two-Line Element Set

1 39423U 13066H 26062.65965773 .00002419 00000-0 44881-3 0 9995
2 39423 97.7026 219.4088 0163165 203.8835 155.4736 14.57843922651353
Epoch: Mar 3, 2026 • Age: 22 hours

Current Status

Altitude 759.0 km
Velocity 7.45 km/s
Sub-Earth Point -44.75°S, 92.47°E
Launch Date Nov 21, 2013
Age 12.2 years
Type other

Technical Details

Classification Payload
Mass 10.10 kg
Dry Mass 10.10 kg
Total Mass 10.10 kg
Length 0.27 m
Diameter 0.27 m
Span 0.27 m
Shape Box
Manufacturer AXEL
Bus Type Yaiyo
Phase Status In Orbit
Owner/State WNI/J

Large Constellations

Loading constellations...